Weather History for KPEQ - December, 2012

Change the Weather History Date:

Thursday, December 27, 2012

  Actual Average Record
Temperature  
Mean Temperature 36 °F -  
Max Temperature 56 °F 59 °F 78 °F (2005)
Min Temperature 16 °F 27 °F 12 °F (1987)
Degree Days  
Heating Degree Days 29    
Moisture  
Dew Point 13 °F    
Average Humidity 51    
Maximum Humidity 66    
Minimum Humidity 24    
Precipitation  
Precipitation 0.00 in - - ()
Sea Level Pressure  
Sea Level Pressure 29.81 in    
Wind  
Wind Speed 3 mph (WNW)    
Max Wind Speed 10 mph    
Max Gust Speed -    
Visibility 10 miles    
Events      
Averages and records for this station are not official NWS values.
T = Trace of Precipitation, MM = Missing Value Source: NWS Daily Summary

Daily Weather History Graph

Daily Weather History Graph

Search for Another Location

Airport or City:

Trip Planner

Search our weather history database for the weather conditions in past years. The results will help you decide how hot, cold, wet, or windy it might be!

Date:

Astronomy

Dec. 27, 2012 Rise Set
Actual Time 7:51 AM CST 5:59 PM CST
Civil Twilight 7:25 AM CST 6:25 PM CST
Nautical Twilight 6:54 AM CST 6:56 PM CST
Astronomical Twilight 6:25 AM CST 7:25 PM CST
Moon 5:42 PM CST (12/27) 7:06 AM CST (12/27)
Length of Visible Light 11h 00m
Length of Day
10h 07m
Full, 100% of the Moon is Illuminated
Dec 27
Full
Dec 28
Full
Jan 4
Last Quarter
Jan 11
New
Jan 18
First Quarter

Hourly Weather History & Observations

Time (CST) Temp. Windchill Dew Point Humidity Pressure Visibility Wind Dir Wind Speed Gust Speed Precip Events Conditions
12:15 AM 24.8 °F - 12.6 °F 60% 29.88 in 10.0 mi Calm Calm - N/A   Clear
12:35 AM 22.1 °F 13.7 °F 10.9 °F 62% 29.88 in 10.0 mi West 6.9 mph - N/A   Clear
12:55 AM 21.9 °F 15.7 °F 10.6 °F 62% 29.86 in 10.0 mi WSW 4.6 mph - N/A   Clear
1:15 AM 20.5 °F 14.0 °F 9.3 °F 62% 29.86 in 10.0 mi West 4.6 mph - N/A   Clear
1:35 AM 20.1 °F 12.3 °F 9.0 °F 62% 29.85 in 10.0 mi WSW 5.8 mph - N/A   Clear
1:55 AM 18.7 °F 11.9 °F 8.2 °F 64% 29.84 in 10.0 mi SW 4.6 mph - N/A   Clear
2:35 AM 19.6 °F - 8.1 °F 61% 29.84 in 10.0 mi Calm Calm - N/A   Clear
2:55 AM 16.9 °F - 6.8 °F 65% 29.83 in 10.0 mi Calm Calm - N/A   Clear
3:15 AM 17.4 °F - 7.5 °F 65% 29.83 in 10.0 mi Calm Calm - N/A   Clear
3:55 AM 16.5 °F - 6.3 °F 64% 29.83 in 10.0 mi Calm Calm - N/A   Clear
4:15 AM 17.1 °F - 6.3 °F 63% 29.83 in 10.0 mi Calm Calm - N/A   Clear
4:35 AM 17.6 °F 12.3 °F 6.8 °F 63% 29.82 in 10.0 mi NW 3.5 mph - N/A   Clear
4:55 AM 17.8 °F - 7.9 °F 65% 29.81 in 10.0 mi Calm Calm - N/A   Clear
5:15 AM 18.0 °F 12.7 °F 7.7 °F 64% 29.81 in 10.0 mi WNW 3.5 mph - N/A   Clear
5:35 AM 18.5 °F 11.7 °F 8.4 °F 65% 29.81 in 10.0 mi NNW 4.6 mph - N/A   Clear
5:55 AM 19.4 °F - 8.4 °F 62% 29.81 in 10.0 mi Calm Calm - N/A   Clear
6:15 AM 19.2 °F - 8.1 °F 62% 29.81 in 10.0 mi Calm Calm - N/A   Clear
6:35 AM 19.2 °F - 7.9 °F 61% 29.82 in 10.0 mi Calm Calm - N/A   Clear
6:55 AM 18.7 °F - 7.9 °F 63% 29.83 in 10.0 mi Calm Calm - N/A   Clear
7:15 AM 19.4 °F 14.3 °F 8.6 °F 63% 29.84 in 10.0 mi WSW 3.5 mph - N/A   Clear
7:35 AM 19.0 °F 12.3 °F 9.0 °F 65% 29.84 in 10.0 mi West 4.6 mph - N/A   Clear
7:55 AM 19.4 °F 14.3 °F 9.5 °F 65% 29.84 in 10.0 mi WNW 3.5 mph - N/A   Clear
8:15 AM 20.7 °F 15.8 °F 10.8 °F 66% 29.84 in 10.0 mi WSW 3.5 mph - N/A   Clear
8:35 AM 21.9 °F - 11.8 °F 65% 29.85 in 10.0 mi Calm Calm - N/A   Clear
8:55 AM 23.0 °F 17.0 °F 12.4 °F 64% 29.85 in 10.0 mi West 4.6 mph - N/A   Clear
9:15 AM 25.0 °F - 13.8 °F 63% 29.86 in 10.0 mi Calm Calm - N/A   Clear
9:35 AM 27.3 °F - 15.6 °F 61% 29.86 in 10.0 mi Calm Calm - N/A   Clear
9:55 AM 28.4 °F - 15.8 °F 59% 29.86 in 10.0 mi Calm Calm - N/A   Clear
10:35 AM 31.1 °F - 16.9 °F 56% 29.88 in 10.0 mi Calm Calm - N/A   Clear
10:55 AM 32.5 °F - 17.4 °F 54% 29.87 in 10.0 mi Calm Calm - N/A   Clear
12:15 PM 39.9 °F - 18.7 °F 42% 29.84 in 10.0 mi Calm Calm - N/A   Clear
12:55 PM 41.5 °F 39.6 °F 18.7 °F 40% 29.81 in 10.0 mi NE 3.5 mph - N/A   Clear
1:35 PM 44.2 °F 42.7 °F 19.4 °F 37% 29.79 in 10.0 mi East 3.5 mph - N/A   Clear
2:15 PM 48.2 °F - 19.9 °F 33% 29.75 in 10.0 mi NE 4.6 mph - N/A   Clear
2:35 PM 49.6 °F - 20.1 °F 31% 29.74 in 10.0 mi NE 5.8 mph - N/A   Clear
3:15 PM 53.1 °F - 20.1 °F 28% 29.72 in 10.0 mi NE 6.9 mph - N/A   Clear
3:35 PM 54.5 °F - 19.6 °F 26% 29.72 in 10.0 mi NE 6.9 mph - N/A   Clear
4:15 PM 56.7 °F - 19.8 °F 24% 29.72 in 10.0 mi East 5.8 mph - N/A   Clear
4:35 PM 56.5 °F - 19.6 °F 24% 29.72 in 10.0 mi East 6.9 mph - N/A   Clear
5:15 PM 54.9 °F - 19.0 °F 25% 29.72 in 10.0 mi East 8.1 mph - N/A   Clear
5:35 PM 52.7 °F - 18.9 °F 26% 29.72 in 10.0 mi ESE 5.8 mph - N/A   Clear
5:55 PM 48.9 °F - 18.1 °F 30% 29.72 in 10.0 mi ESE 3.5 mph - N/A   Clear
7:35 PM 43.9 °F - 17.8 °F 35% 29.75 in 10.0 mi Calm Calm - N/A   Clear
7:55 PM 37.9 °F - 14.5 °F 38% 29.76 in 10.0 mi Calm Calm - N/A   Clear
8:55 PM 35.1 °F - 15.3 °F 44% 29.78 in 10.0 mi Calm Calm - N/A   Clear
9:15 PM 35.8 °F 31.9 °F 15.1 °F 43% 29.79 in 10.0 mi West 4.6 mph - N/A   Clear
9:35 PM 34.3 °F 29.2 °F 14.4 °F 44% 29.79 in 10.0 mi West 5.8 mph - N/A   Clear
9:55 PM 32.9 °F 27.5 °F 13.1 °F 44% 29.80 in 10.0 mi WSW 5.8 mph - N/A   Clear
10:15 PM 32.0 °F 26.4 °F 12.6 °F 45% 29.81 in 10.0 mi WSW 5.8 mph - N/A   Clear
10:35 PM 32.0 °F 24.8 °F 12.9 °F 45% 29.82 in 10.0 mi West 8.1 mph - N/A   Clear
10:55 PM 32.7 °F 24.5 °F 13.1 °F 44% 29.82 in 10.0 mi West 10.4 mph - N/A   Clear
11:35 PM 35.4 °F 27.8 °F 14.5 °F 42% 29.86 in 10.0 mi WNW 10.4 mph - N/A   Clear
11:55 PM 35.8 °F 29.4 °F 14.9 °F 43% 29.86 in 10.0 mi WNW 8.1 mph - N/A   Clear